Location: Litvinovka
(48.6667°N, 34.3500°E)
Time: 16:14:22
(UTC+00:00)

ARGOS - Pass Details

Date: 18 September 2020
Orbit: 821 x 834 km, 98.4° (Epoch: 22 October)

Event Time Altitude Azimuth Distance (km) Brightness Sun altitude
Rises 17:32:52 0° 183° (S) 3,340 6.1 -17.6°
Reaches altitude 10° 17:35:19 10° 190° (S) 2,413 5.4 -17.9°
Maximum altitude 17:40:24 44° 262° (W) 1,128 4.2 -18.7°
Drops below altitude 10° 17:45:33 10° 334° (NNW) 2,436 6.3 -19.5°
Sets 17:48:02 0° 341° (NNW) 3,375 7.0 -19.8°
